| time (UTC) | temp F | wind direction | speed knots | gust knots | rain 1hr in | rain 24hr in | rain mn in | humidity % | barometer mb |
| 20260902114302 | 74 | 100 | 0.0 | 0.0 | 0.00 | 0.00 | 0.00 | 73 | 1016.6 |
| 20260902113802 | 75 | 80 | 0.0 | 0.0 | 0.00 | 0.00 | 0.00 | 74 | 1016.6 |
| 20260902113303 | 75 | 145 | 0.0 | 0.0 | 0.00 | 0.00 | 0.00 | 74 | 1016.6 |
| 20260902112802 | 75 | 167 | 0.0 | 0.0 | 0.00 | 0.00 | 0.00 | 74 | 1016.7 |
| 20260902112305 | 75 | 143 | 0.0 | 0.0 | 0.00 | 0.00 | 0.00 | 75 | 1016.7 |
| 20260902111803 | 74 | 146 | 0.0 | 0.0 | 0.00 | 0.00 | 0.00 | 74 | 1016.7 |
| 20260902111303 | 74 | 129 | 0.0 | 0.0 | 0.00 | 0.00 | 0.00 | 74 | 1016.7 |
| 20260902110803 | 74 | 145 | 0.0 | 0.0 | 0.00 | 0.00 | 0.00 | 74 | 1016.6 |
| 20260902110303 | 74 | 92 | 0.0 | 0.0 | 0.00 | 0.00 | 0.00 | 74 | 1016.6 |
| 20260902105306 | 74 | 125 | 0.0 | 0.0 | 0.00 | 0.00 | 0.00 | 74 | 1016.5 |
| 20260902104803 | 74 | 278 | 0.0 | 0.0 | 0.00 | 0.00 | 0.00 | 73 | 1016.4 |
| 20260902104302 | 74 | 195 | 0.0 | 0.0 | 0.00 | 0.00 | 0.00 | 73 | 1016.4 |
| 20260902103804 | 74 | 279 | 0.0 | 0.0 | 0.00 | 0.00 | 0.00 | 73 | 1016.4 |
| 20260902103302 | 74 | 186 | 0.0 | 0.0 | 0.00 | 0.00 | 0.00 | 73 | 1016.4 |
| 20260902102803 | 74 | 322 | 0.0 | 0.0 | 0.00 | 0.00 | 0.00 | 72 | 1016.3 |
| 20260902102307 | 75 | 145 | 0.0 | 0.0 | 0.00 | 0.00 | 0.00 | 72 | 1016.3 |
| 20260902101803 | 75 | 187 | 0.0 | 0.0 | 0.00 | 0.00 | 0.00 | 72 | 1016.3 |
| 20260902100802 | 75 | 56 | 0.0 | 1.7 | 0.00 | 0.00 | 0.00 | 72 | 1016.2 |
| 20260902095306 | 76 | 154 | 0.0 | 0.0 | 0.00 | 0.00 | 0.00 | 71 | 1016.2 |
| 20260902094802 | 76 | 209 | 0.0 | 0.0 | 0.00 | 0.00 | 0.00 | 71 | 1015.7 |
| 20260902094302 | 76 | 127 | 0.0 | 0.0 | 0.00 | 0.00 | 0.00 | 71 | 1015.7 |
| 20260902093803 | 76 | 325 | 0.0 | 0.0 | 0.00 | 0.00 | 0.00 | 71 | 1015.7 |
| 20260902093302 | 76 | 285 | 0.0 | 2.6 | 0.00 | 0.00 | 0.00 | 71 | 1015.7 |
| 20260902092803 | 76 | 144 | 0.0 | 2.6 | 0.00 | 0.00 | 0.00 | 71 | 1016.0 |
| 20260902092305 | 76 | 136 | 0.0 | 0.0 | 0.00 | 0.00 | 0.00 | 71 | 1016.0 |
| 20260902091803 | 76 | 57 | 0.0 | 0.0 | 0.00 | 0.00 | 0.00 | 71 | 1016.0 |
| 20260902091303 | 76 | 114 | 0.0 | 0.0 | 0.00 | 0.00 | 0.00 | 71 | 1016.0 |
| 20260902090803 | 76 | 142 | 0.0 | 1.7 | 0.00 | 0.00 | 0.00 | 71 | 1016.0 |
| 20260902090302 | 76 | 124 | 0.0 | 1.7 | 0.00 | 0.00 | 0.00 | 71 | 1016.0 |
| 20260902085803 | 76 | 147 | 0.9 | 0.0 | 0.00 | 0.00 | 0.00 | 71 | 1016.0 |
| 20260902085306 | 76 | 100 | 0.9 | 2.6 | 0.00 | 0.00 | 0.00 | 71 | 1016.0 |
| 20260902084803 | 76 | 122 | 0.9 | 1.7 | 0.00 | 0.00 | 0.00 | 71 | 1016.0 |
| 20260902084303 | 76 | 140 | 0.9 | 1.7 | 0.00 | 0.00 | 0.00 | 71 | 1016.0 |
| 20260902083803 | 77 | 121 | 0.9 | 1.7 | 0.00 | 0.00 | 0.00 | 71 | 1016.0 |
| 20260902082803 | 77 | 123 | 0.9 | 2.6 | 0.00 | 0.00 | 0.00 | 70 | 1015.7 |
| 20260902082308 | 77 | 112 | 0.9 | 1.7 | 0.00 | 0.00 | 0.00 | 70 | 1015.7 |
| 20260902081802 | 77 | 122 | 0.9 | 4.3 | 0.00 | 0.00 | 0.00 | 70 | 1015.7 |
| 20260902080803 | 77 | 257 | 0.9 | 0.0 | 0.00 | 0.00 | 0.00 | 69 | 1016.1 |
| 20260902080303 | 77 | 132 | 0.9 | 5.2 | 0.00 | 0.00 | 0.00 | 69 | 1016.1 |
| 20260902075802 | 77 | 146 | 0.9 | 5.2 | 0.00 | 0.00 | 0.00 | 69 | 1016.1 |
| 20260902075306 | 77 | 157 | 0.9 | 4.3 | 0.00 | 0.00 | 0.00 | 69 | 1016.1 |
| 20260902074803 | 77 | 351 | 0.9 | 5.2 | 0.00 | 0.00 | 0.00 | 69 | 1015.9 |
| 20260902074302 | 77 | 145 | 1.7 | 5.2 | 0.00 | 0.00 | 0.00 | 69 | 1015.9 |
| 20260902073802 | 77 | 209 | 0.9 | 4.3 | 0.00 | 0.00 | 0.00 | 69 | 1015.9 |
| 20260902073303 | 78 | 122 | 1.7 | 4.3 | 0.00 | 0.00 | 0.00 | 69 | 1015.9 |
| 20260902072308 | 78 | 122 | 0.9 | 2.6 | 0.00 | 0.00 | 0.00 | 69 | 1016.0 |
| 20260902071303 | 78 | 134 | 0.9 | 0.0 | 0.00 | 0.00 | 0.00 | 68 | 1016.0 |
| 20260902070303 | 78 | 325 | 0.9 | 4.3 | 0.00 | 0.00 | 0.00 | 68 | 1015.9 |
| 20260902065803 | 78 | 114 | 0.9 | 2.6 | 0.00 | 0.00 | 0.00 | 67 | 1015.9 |
| 20260902065306 | 78 | 151 | 0.9 | 2.6 | 0.00 | 0.00 | 0.00 | 67 | 1015.9 |
| 20260902063802 | 78 | 142 | 1.7 | 2.6 | 0.00 | 0.00 | 0.00 | 67 | 1016.2 |
| 20260902063303 | 78 | 104 | 1.7 | 4.3 | 0.00 | 0.00 | 0.00 | 67 | 1016.2 |
| 20260902062803 | 78 | 101 | 0.9 | 4.3 | 0.00 | 0.00 | 0.00 | 67 | 1016.3 |
| 20260902061802 | 78 | 143 | 1.7 | 2.6 | 0.00 | 0.00 | 0.00 | 67 | 1016.3 |
| 20260902060303 | 79 | 145 | 1.7 | 4.3 | 0.00 | 0.00 | 0.00 | 67 | 1016.2 |
| 20260902055803 | 79 | 124 | 0.9 | 4.3 | 0.00 | 0.00 | 0.00 | 66 | 1016.2 |
| 20260902055306 | 79 | 145 | 0.9 | 2.6 | 0.00 | 0.00 | 0.00 | 66 | 1016.2 |
| 20260902054802 | 79 | 143 | 0.9 | 2.6 | 0.00 | 0.00 | 0.00 | 66 | 1016.0 |
| 20260902054302 | 79 | 122 | 1.7 | 2.6 | 0.00 | 0.00 | 0.00 | 65 | 1016.0 |
| 20260902053803 | 79 | 122 | 0.9 | 2.6 | 0.00 | 0.00 | 0.00 | 65 | 1016.0 |
| 20260902053303 | 79 | 145 | 0.9 | 2.6 | 0.00 | 0.00 | 0.00 | 64 | 1016.0 |
| 20260902052803 | 79 | 102 | 0.9 | 2.6 | 0.00 | 0.00 | 0.00 | 63 | 1016.2 |
| 20260902052306 | 79 | 82 | 0.9 | 4.3 | 0.00 | 0.00 | 0.00 | 62 | 1016.2 |
| 20260902051803 | 79 | 146 | 1.7 | 4.3 | 0.00 | 0.00 | 0.00 | 62 | 1016.2 |
| 20260902051303 | 79 | 100 | 1.7 | 1.7 | 0.00 | 0.00 | 0.00 | 62 | 1016.2 |
| 20260902050819 | 79 | 102 | 1.7 | 2.6 | 0.00 | 0.00 | 0.00 | 62 | 1016.0 |
| 20260902050302 | 79 | 120 | 1.7 | 2.6 | 0.00 | 0.00 | 0.00 | 61 | 1016.0 |
| 20260902045803 | 80 | 167 | 1.7 | 4.3 | 0.00 | 0.00 | 0.00 | 61 | 1016.0 |
| 20260902045306 | 80 | 141 | 1.7 | 4.3 | 0.00 | 0.00 | 0.00 | 61 | 1016.0 |
| 20260902044803 | 80 | 122 | 0.9 | 4.3 | 0.00 | 0.00 | 0.00 | 61 | 1015.7 |
| 20260902044303 | 79 | 20 | 0.9 | 2.6 | 0.00 | 0.00 | 0.00 | 60 | 1015.7 |
| 20260902043803 | 80 | 122 | 0.9 | 2.6 | 0.00 | 0.00 | 0.00 | 60 | 1015.7 |
| 20260902043302 | 80 | 141 | 0.0 | 1.7 | 0.00 | 0.00 | 0.00 | 59 | 1015.7 |
| 20260902042802 | 80 | 188 | 0.0 | 0.0 | 0.00 | 0.00 | 0.00 | 59 | 1015.7 |
| 20260902042308 | 80 | 181 | 0.0 | 1.7 | 0.00 | 0.00 | 0.00 | 60 | 1015.7 |
| 20260902041803 | 80 | 123 | 0.9 | 1.7 | 0.00 | 0.00 | 0.00 | 58 | 1015.7 |
| 20260902041302 | 80 | 138 | 0.9 | 4.3 | 0.00 | 0.00 | 0.00 | 58 | 1015.7 |
| 20260902040803 | 80 | 121 | 0.9 | 4.3 | 0.00 | 0.00 | 0.00 | 58 | 1015.9 |
| 20260902040303 | 80 | 104 | 0.9 | 4.3 | 0.00 | 0.00 | 0.00 | 58 | 1015.9 |
| 20260902035803 | 81 | 144 | 0.9 | 4.3 | 0.00 | 0.00 | 0.00 | 58 | 1015.9 |
| 20260902035305 | 80 | 92 | 0.0 | 2.6 | 0.00 | 0.00 | 0.00 | 58 | 1015.9 |
| 20260902034803 | 80 | 80 | 0.0 | 0.0 | 0.00 | 0.00 | 0.00 | 57 | 1016.0 |
| 20260902034303 | 80 | 104 | 0.0 | 1.7 | 0.00 | 0.00 | 0.00 | 56 | 1016.0 |
| 20260902033803 | 81 | 123 | 0.0 | 1.7 | 0.00 | 0.00 | 0.00 | 56 | 1016.0 |
| 20260902033303 | 81 | 161 | 0.0 | 0.0 | 0.00 | 0.00 | 0.00 | 57 | 1016.0 |
| 20260902032803 | 81 | 255 | 0.0 | 0.0 | 0.00 | 0.00 | 0.00 | 56 | 1015.9 |
| 20260902032305 | 81 | 136 | 0.0 | 0.0 | 0.00 | 0.00 | 0.00 | 55 | 1015.9 |
| 20260902031803 | 81 | 257 | 0.0 | 1.7 | 0.00 | 0.00 | 0.00 | 55 | 1015.9 |
| 20260902031303 | 81 | 112 | 0.0 | 1.7 | 0.00 | 0.00 | 0.00 | 55 | 1015.9 |
| 20260902030802 | 81 | 99 | 0.0 | 1.7 | 0.00 | 0.00 | 0.00 | 55 | 1015.7 |
| 20260902030303 | 81 | 223 | 0.0 | 0.0 | 0.00 | 0.00 | 0.00 | 55 | 1015.7 |
| 20260902025803 | 81 | 96 | 0.0 | 1.7 | 0.00 | 0.00 | 0.00 | 54 | 1015.7 |
| 20260902025306 | 81 | 125 | 0.0 | 0.0 | 0.00 | 0.00 | 0.00 | 55 | 1015.7 |
| 20260902024803 | 81 | 99 | 0.0 | 2.6 | 0.00 | 0.00 | 0.00 | 54 | 1015.5 |
| 20260902024303 | 82 | 148 | 0.9 | 0.0 | 0.00 | 0.00 | 0.00 | 54 | 1015.5 |
| 20260902023803 | 82 | 261 | 0.9 | 1.7 | 0.00 | 0.00 | 0.00 | 54 | 1015.5 |
| 20260902023303 | 82 | 142 | 0.9 | 2.6 | 0.00 | 0.00 | 0.00 | 54 | 1015.5 |
| 20260902022803 | 82 | 11 | 0.0 | 1.7 | 0.00 | 0.00 | 0.00 | 54 | 1015.3 |
| 20260902022305 | 82 | 137 | 0.0 | 0.0 | 0.00 | 0.00 | 0.00 | 53 | 1015.3 |
| 20260902021803 | 82 | 12 | 0.0 | 0.0 | 0.00 | 0.00 | 0.00 | 54 | 1015.3 |
| 20260902021303 | 82 | 259 | 0.0 | 0.0 | 0.00 | 0.00 | 0.00 | 54 | 1015.3 |
| 20260902020303 | 83 | 312 | 0.0 | 2.6 | 0.00 | 0.00 | 0.00 | 53 | 1015.4 |
| 20260902015803 | 83 | 210 | 0.0 | 0.0 | 0.00 | 0.00 | 0.00 | 53 | 1015.4 |
| 20260902015306 | 83 | 104 | 0.0 | 0.0 | 0.00 | 0.00 | 0.00 | 53 | 1015.4 |
| 20260902014802 | 83 | 257 | 0.0 | 0.0 | 0.00 | 0.00 | 0.00 | 52 | 1015.2 |
| 20260902014303 | 83 | 109 | 0.0 | 0.0 | 0.00 | 0.00 | 0.00 | 52 | 1015.2 |
| 20260902013803 | 84 | 94 | 0.0 | 0.0 | 0.00 | 0.00 | 0.00 | 51 | 1015.2 |
| 20260902013303 | 84 | 112 | 0.0 | 0.0 | 0.00 | 0.00 | 0.00 | 50 | 1015.2 |
| 20260902012308 | 84 | 336 | 0.0 | 0.0 | 0.00 | 0.00 | 0.00 | 50 | 1015.2 |
| 20260902011803 | 85 | 135 | 0.0 | 1.7 | 0.00 | 0.00 | 0.00 | 50 | 1015.2 |
| 20260902011303 | 85 | 151 | 0.0 | 1.7 | 0.00 | 0.00 | 0.00 | 50 | 1015.2 |
| 20260902010803 | 85 | 142 | 0.0 | 1.7 | 0.00 | 0.00 | 0.00 | 49 | 1014.9 |
| 20260902010303 | 85 | 21 | 0.0 | 1.7 | 0.00 | 0.00 | 0.00 | 49 | 1014.9 |
| 20260902005803 | 86 | 235 | 0.0 | 4.3 | 0.00 | 0.00 | 0.00 | 48 | 1014.9 |
| 20260902005305 | 86 | 198 | 0.0 | 0.0 | 0.00 | 0.00 | 0.00 | 47 | 1014.9 |
| 20260902004803 | 87 | 282 | 0.0 | 2.6 | 0.00 | 0.00 | 0.00 | 47 | 1014.8 |
| 20260902004302 | 87 | 269 | 0.9 | 2.6 | 0.00 | 0.00 | 0.00 | 47 | 1014.8 |
| 20260902003803 | 87 | 55 | 0.9 | 2.6 | 0.00 | 0.00 | 0.00 | 46 | 1014.8 |
| 20260902003303 | 87 | 100 | 0.0 | 1.7 | 0.00 | 0.00 | 0.00 | 47 | 1014.8 |
| 20260902002306 | 88 | 145 | 0.0 | 1.7 | 0.00 | 0.00 | 0.00 | 45 | 1014.9 |
| 20260902001803 | 88 | 347 | 0.9 | 2.6 | 0.00 | 0.00 | 0.00 | 44 | 1014.9 |
| 20260902001302 | 88 | 233 | 0.9 | 2.6 | 0.00 | 0.00 | 0.00 | 44 | 1014.9 |
| 20260902000803 | 89 | 79 | 0.9 | 2.6 | 0.00 | 0.00 | 0.00 | 43 | 1015.1 |
| 20260902000304 | 89 | 104 | 0.9 | 2.6 | 0.00 | 0.00 | 0.00 | 43 | 1015.1 |
| 20260901235803 | 89 | 81 | 0.9 | 4.3 | 0.00 | 0.00 | 0.00 | 42 | 1015.1 |
| 20260901235307 | 90 | 122 | 0.9 | 6.1 | 0.00 | 0.00 | 0.00 | 42 | 1015.1 |
| 20260901234803 | 90 | 169 | 0.9 | 1.7 | 0.00 | 0.00 | 0.00 | 41 | 1015.1 |
| 20260901234303 | 90 | 149 | 0.9 | 5.2 | 0.00 | 0.00 | 0.00 | 41 | 1015.1 |
| 20260901233803 | 91 | 81 | 0.9 | 5.2 | 0.00 | 0.00 | 0.00 | 41 | 1015.1 |
| 20260901233302 | 91 | 294 | 0.9 | 2.6 | 0.00 | 0.00 | 0.00 | 41 | 1015.1 |
| 20260901232306 | 92 | 341 | 1.7 | 8.7 | 0.00 | 0.00 | 0.00 | 39 | 1015.2 |
| 20260901231803 | 93 | 120 | 0.9 | 8.7 | 0.00 | 0.00 | 0.00 | 36 | 1015.2 |
| 20260901231303 | 94 | 44 | 0.9 | 2.6 | 0.00 | 0.00 | 0.00 | 36 | 1015.2 |
| 20260901230803 | 95 | 8 | 0.9 | 2.6 | 0.00 | 0.00 | 0.00 | 35 | 1015.0 |
| 20260901230303 | 94 | 275 | 0.9 | 4.3 | 0.00 | 0.00 | 0.00 | 35 | 1015.0 |
| 20260901225803 | 95 | 145 | 0.9 | 4.3 | 0.00 | 0.00 | 0.00 | 33 | 1015.0 |
| 20260901225306 | 98 | 165 | 0.9 | 2.6 | 0.00 | 0.00 | 0.00 | 32 | 1015.0 |
| 20260901224802 | 98 | 100 | 0.9 | 1.7 | 0.00 | 0.00 | 0.00 | 32 | 1014.7 |
| 20260901224303 | 97 | 340 | 1.7 | 2.6 | 0.00 | 0.00 | 0.00 | 33 | 1014.7 |
| 20260901223303 | 95 | 253 | 2.6 | 5.2 | 0.00 | 0.00 | 0.00 | 32 | 1014.7 |
| 20260901222803 | 97 | 101 | 0.9 | 5.2 | 0.00 | 0.00 | 0.00 | 31 | 1014.9 |
| 20260901221803 | 100 | 124 | 1.7 | 2.6 | 0.00 | 0.00 | 0.00 | 30 | 1014.9 |
| 20260901221303 | 100 | 88 | 1.7 | 4.3 | 0.00 | 0.00 | 0.00 | 28 | 1014.9 |
| 20260901220803 | 103 | 80 | 2.6 | 5.2 | 0.00 | 0.00 | 0.00 | 30 | 1014.9 |
| 20260901220302 | 102 | 84 | 2.6 | 10.4 | 0.00 | 0.00 | 0.00 | 30 | 1014.9 |
| 20260901215306 | 101 | 21 | 0.9 | 4.3 | 0.00 | 0.00 | 0.00 | 31 | 1014.9 |
| 20260901214803 | 103 | 166 | 0.9 | 1.7 | 0.00 | 0.00 | 0.00 | 30 | 1014.9 |
| 20260901213802 | 103 | 97 | 0.9 | 7.0 | 0.00 | 0.00 | 0.00 | 31 | 1014.9 |
| 20260901213303 | 101 | 74 | 0.9 | 4.3 | 0.00 | 0.00 | 0.00 | 32 | 1014.9 |
| 20260901212803 | 98 | 256 | 0.9 | 5.2 | 0.00 | 0.00 | 0.00 | 32 | 1015.0 |
| 20260901212306 | 98 | 286 | 0.9 | 5.2 | 0.00 | 0.00 | 0.00 | 31 | 1015.0 |
| 20260901211803 | 100 | 102 | 0.9 | 1.7 | 0.00 | 0.00 | 0.00 | 31 | 1015.0 |
| 20260901211303 | 101 | 117 | 1.7 | 4.3 | 0.00 | 0.00 | 0.00 | 30 | 1015.0 |
| 20260901210803 | 101 | 100 | 2.6 | 4.3 | 0.00 | 0.00 | 0.00 | 29 | 1015.2 |
| 20260901205803 | 102 | 104 | 1.7 | 7.0 | 0.00 | 0.00 | 0.00 | 29 | 1015.2 |
| 20260901205306 | 102 | 145 | 0.9 | 1.7 | 0.00 | 0.00 | 0.00 | 30 | 1015.2 |
| 20260901204803 | 101 | 144 | 0.9 | 1.7 | 0.00 | 0.00 | 0.00 | 31 | 1015.7 |
| 20260901204303 | 100 | 156 | 0.9 | 5.2 | 0.00 | 0.00 | 0.00 | 30 | 1015.7 |
| 20260901203803 | 104 | 255 | 0.9 | 5.2 | 0.00 | 0.00 | 0.00 | 28 | 1015.7 |
| 20260901203303 | 103 | 111 | 0.9 | 1.7 | 0.00 | 0.00 | 0.00 | 30 | 1015.7 |
| 20260901202803 | 105 | 255 | 0.9 | 2.6 | 0.00 | 0.00 | 0.00 | 26 | 1015.9 |
| 20260901202306 | 106 | 82 | 0.0 | 0.0 | 0.00 | 0.00 | 0.00 | 28 | 1015.9 |
| 20260901201804 | 105 | 279 | 0.9 | 0.0 | 0.00 | 0.00 | 0.00 | 28 | 1015.9 |
| 20260901201303 | 104 | 222 | 1.7 | 2.6 | 0.00 | 0.00 | 0.00 | 27 | 1015.9 |
| 20260901200803 | 105 | 178 | 1.7 | 4.3 | 0.00 | 0.00 | 0.00 | 26 | 1016.0 |
| 20260901200303 | 105 | 180 | 1.7 | 7.0 | 0.00 | 0.00 | 0.00 | 26 | 1016.0 |
| 20260901195803 | 105 | 145 | 0.9 | 7.0 | 0.00 | 0.00 | 0.00 | 27 | 1016.0 |
| 20260901195305 | 104 | 168 | 0.9 | 1.7 | 0.00 | 0.00 | 0.00 | 29 | 1016.0 |
| 20260901194303 | 102 | 136 | 2.6 | 10.4 | 0.00 | 0.00 | 0.00 | 30 | 1016.9 |
| 20260901193804 | 101 | 126 | 4.3 | 10.4 | 0.00 | 0.00 | 0.00 | 28 | 1016.9 |
| 20260901193303 | 101 | 100 | 2.6 | 5.2 | 0.00 | 0.00 | 0.00 | 31 | 1016.9 |
| 20260901192803 | 101 | 122 | 1.7 | 5.2 | 0.00 | 0.00 | 0.00 | 30 | 1016.3 |
| 20260901191802 | 101 | 238 | 1.7 | 6.1 | 0.00 | 0.00 | 0.00 | 31 | 1016.3 |
| 20260901191303 | 101 | 316 | 3.5 | 5.2 | 0.00 | 0.00 | 0.00 | 32 | 1016.3 |
| 20260901190803 | 100 | 103 | 4.3 | 10.4 | 0.00 | 0.00 | 0.00 | 32 | 1016.5 |
| 20260901190303 | 100 | 100 | 4.3 | 7.8 | 0.00 | 0.00 | 0.00 | 32 | 1016.5 |
| 20260901185803 | 99 | 121 | 4.3 | 10.4 | 0.00 | 0.00 | 0.00 | 34 | 1016.5 |
| 20260901185305 | 100 | 100 | 1.7 | 10.4 | 0.00 | 0.00 | 0.00 | 33 | 1016.5 |
| 20260901184803 | 100 | 98 | 2.6 | 5.2 | 0.00 | 0.00 | 0.00 | 36 | 1016.7 |
| 20260901184303 | 98 | 145 | 4.3 | 7.0 | 0.00 | 0.00 | 0.00 | 36 | 1016.7 |
| 20260901183304 | 98 | 25 | 3.5 | 5.2 | 0.00 | 0.00 | 0.00 | 36 | 1016.7 |
| 20260901182803 | 98 | 303 | 4.3 | 7.0 | 0.00 | 0.00 | 0.00 | 39 | 1016.9 |
| 20260901182305 | 97 | 307 | 4.3 | 6.1 | 0.00 | 0.00 | 0.00 | 40 | 1016.9 |
| 20260901180303 | 94 | 200 | 4.3 | 10.4 | 0.00 | 0.00 | 0.00 | 46 | 1017.3 |
| 20260901175803 | 93 | 97 | 4.3 | 7.0 | 0.00 | 0.00 | 0.00 | 46 | 1017.3 |
| 20260901175305 | 93 | 105 | 2.6 | 7.0 | 0.00 | 0.00 | 0.00 | 46 | 1017.3 |
| 20260901174803 | 93 | 13 | 1.7 | 4.3 | 0.00 | 0.00 | 0.00 | 47 | 1017.3 |
| 20260901174303 | 92 | 302 | 2.6 | 6.1 | 0.00 | 0.00 | 0.00 | 47 | 1017.3 |
| 20260901173803 | 92 | 302 | 2.6 | 7.0 | 0.00 | 0.00 | 0.00 | 48 | 1017.3 |
| 20260901172803 | 91 | 280 | 1.7 | 5.2 | 0.00 | 0.00 | 0.00 | 49 | 1017.6 |
| 20260901171303 | 91 | 222 | 2.6 | 7.0 | 0.00 | 0.00 | 0.00 | 50 | 1017.6 |
| 20260901170303 | 90 | 264 | 2.6 | 7.8 | 0.00 | 0.00 | 0.00 | 51 | 1017.8 |
| 20260901165803 | 90 | 122 | 2.6 | 7.8 | 0.00 | 0.00 | 0.00 | 51 | 1017.8 |
| 20260901165306 | 90 | 131 | 1.7 | 10.4 | 0.00 | 0.00 | 0.00 | 51 | 1017.8 |
| 20260901164803 | 90 | 281 | 2.6 | 10.4 | 0.00 | 0.00 | 0.00 | 52 | 1017.9 |
| 20260901164303 | 89 | 309 | 4.3 | 5.2 | 0.00 | 0.00 | 0.00 | 51 | 1017.9 |
| 20260901163803 | 89 | 98 | 6.1 | 5.2 | 0.00 | 0.00 | 0.00 | 52 | 1017.9 |
| 20260901163303 | 89 | 136 | 5.2 | 13.0 | 0.00 | 0.00 | 0.00 | 51 | 1017.9 |
| 20260901162803 | 89 | 148 | 5.2 | 13.0 | 0.00 | 0.00 | 0.00 | 51 | 1017.9 |
| 20260901162306 | 89 | 68 | 5.2 | 7.0 | 0.00 | 0.00 | 0.00 | 53 | 1017.9 |
| 20260901161804 | 88 | 51 | 6.1 | 10.4 | 0.00 | 0.00 | 0.00 | 54 | 1017.9 |
| 20260901161303 | 88 | 104 | 5.2 | 15.6 | 0.00 | 0.00 | 0.00 | 54 | 1017.9 |
| 20260901160803 | 88 | 100 | 5.2 | 15.6 | 0.00 | 0.00 | 0.00 | 55 | 1017.9 |
| 20260901160303 | 88 | 90 | 5.2 | 8.7 | 0.00 | 0.00 | 0.00 | 54 | 1017.9 |
| 20260901155803 | 88 | 142 | 5.2 | 17.4 | 0.00 | 0.00 | 0.00 | 55 | 1017.9 |
| 20260901155306 | 88 | 68 | 4.3 | 17.4 | 0.00 | 0.00 | 0.00 | 54 | 1017.9 |
| 20260901154803 | 88 | 280 | 2.6 | 7.8 | 0.00 | 0.00 | 0.00 | 56 | 1017.9 |
| 20260901154303 | 88 | 258 | 4.3 | 10.4 | 0.00 | 0.00 | 0.00 | 56 | 1017.9 |
| 20260901153803 | 87 | 142 | 4.3 | 10.4 | 0.00 | 0.00 | 0.00 | 56 | 1017.9 |
| 20260901153303 | 87 | 100 | 4.3 | 6.1 | 0.00 | 0.00 | 0.00 | 56 | 1017.9 |
| 20260901152803 | 87 | 56 | 2.6 | 6.1 | 0.00 | 0.00 | 0.00 | 57 | 1017.8 |
| 20260901151803 | 86 | 214 | 2.6 | 7.0 | 0.00 | 0.00 | 0.00 | 58 | 1017.8 |
| 20260901151303 | 86 | 110 | 2.6 | 5.2 | 0.00 | 0.00 | 0.00 | 58 | 1017.8 |
| 20260901150303 | 86 | 342 | 2.6 | 7.0 | 0.00 | 0.00 | 0.00 | 59 | 1017.7 |
| 20260901145803 | 85 | 101 | 3.5 | 6.1 | 0.00 | 0.00 | 0.00 | 60 | 1017.7 |
| 20260901145306 | 85 | 118 | 4.3 | 6.1 | 0.00 | 0.00 | 0.00 | 60 | 1017.7 |
| 20260901144803 | 84 | 347 | 2.6 | 6.1 | 0.00 | 0.00 | 0.00 | 60 | 1018.0 |
| 20260901144303 | 84 | 104 | 1.7 | 7.0 | 0.00 | 0.00 | 0.00 | 61 | 1018.0 |
| 20260901143803 | 84 | 183 | 2.6 | 2.6 | 0.00 | 0.00 | 0.00 | 62 | 1018.0 |
| 20260901143303 | 83 | 161 | 2.6 | 6.1 | 0.00 | 0.00 | 0.00 | 63 | 1018.0 |
| 20260901142803 | 83 | 114 | 2.6 | 6.1 | 0.00 | 0.00 | 0.00 | 65 | 1018.0 |
| 20260901142305 | 83 | 82 | 2.6 | 7.0 | 0.00 | 0.00 | 0.00 | 64 | 1018.0 |
| 20260901141803 | 82 | 100 | 2.6 | 7.0 | 0.00 | 0.00 | 0.00 | 66 | 1018.0 |
| 20260901141303 | 82 | 118 | 2.6 | 5.2 | 0.00 | 0.00 | 0.00 | 67 | 1018.0 |
| 20260901140303 | 81 | 100 | 1.7 | 5.2 | 0.00 | 0.00 | 0.00 | 69 | 1017.9 |
| 20260901135803 | 80 | 123 | 1.7 | 5.2 | 0.00 | 0.00 | 0.00 | 70 | 1017.9 |
| 20260901135305 | 80 | 119 | 1.7 | 4.3 | 0.00 | 0.00 | 0.00 | 70 | 1017.9 |
| 20260901133803 | 79 | 147 | 0.0 | 0.0 | 0.00 | 0.00 | 0.00 | 73 | 1018.0 |
| 20260901133303 | 79 | 145 | 0.0 | 1.7 | 0.00 | 0.00 | 0.00 | 74 | 1018.0 |
| 20260901132804 | 78 | 104 | 0.9 | 1.7 | 0.00 | 0.00 | 0.00 | 75 | 1017.8 |
| 20260901132306 | 78 | 100 | 0.0 | 0.0 | 0.00 | 0.00 | 0.00 | 75 | 1017.8 |
| 20260901131803 | 77 | 104 | 0.0 | 1.7 | 0.00 | 0.00 | 0.00 | 76 | 1017.8 |
| 20260901131303 | 77 | 123 | 0.0 | 1.7 | 0.00 | 0.00 | 0.00 | 77 | 1017.8 |
| 20260901130805 | 77 | 98 | 0.9 | 0.0 | 0.00 | 0.00 | 0.00 | 77 | 1017.9 |
| 20260901130303 | 76 | 156 | 1.7 | 2.6 | 0.00 | 0.00 | 0.00 | 78 | 1017.9 |
| 20260901125803 | 76 | 117 | 1.7 | 2.6 | 0.00 | 0.00 | 0.00 | 78 | 1017.9 |
| 20260901125308 | 76 | 145 | 0.9 | 2.6 | 0.00 | 0.00 | 0.00 | 79 | 1017.9 |
| 20260901124804 | 76 | 100 | 0.9 | 2.6 | 0.00 | 0.00 | 0.00 | 80 | 1017.7 |
| 20260901124303 | 75 | 121 | 0.9 | 2.6 | 0.00 | 0.00 | 0.00 | 80 | 1017.6 |
| 20260901123803 | 75 | 105 | 0.9 | 2.6 | 0.00 | 0.00 | 0.00 | 80 | 1017.6 |
| 20260901123303 | 75 | 160 | 0.0 | 0.0 | 0.00 | 0.00 | 0.00 | 81 | 1017.6 |
| 20260901122803 | 75 | 118 | 0.0 | 0.0 | 0.00 | 0.00 | 0.00 | 81 | 1017.5 |
| 20260901122306 | 75 | 212 | 0.0 | 0.0 | 0.00 | 0.00 | 0.00 | 81 | 1017.5 |
| 20260901121803 | 75 | 103 | 0.0 | 1.7 | 0.00 | 0.00 | 0.00 | 81 | 1017.5 |
| 20260901121303 | 74 | 122 | 0.0 | 0.0 | 0.00 | 0.00 | 0.00 | 81 | 1017.5 |
| 20260901120803 | 74 | 117 | 0.0 | 0.0 | 0.00 | 0.00 | 0.00 | 82 | 1017.4 |
| 20260901120304 | 74 | 235 | 0.0 | 0.0 | 0.00 | 0.00 | 0.00 | 82 | 1017.4 |
| 20260901115804 | 74 | 132 | 0.0 | 0.0 | 0.00 | 0.00 | 0.00 | 82 | 1017.4 |
| 20260901115306 | 74 | 144 | 0.0 | 0.0 | 0.00 | 0.00 | 0.00 | 81 | 1017.4 |